TimeEDT,TemperatureF,Dew PointF,Humidity,Sea Level PressureIn,VisibilityMPH,Wind Direction,Wind SpeedMPH,Gust SpeedMPH,PrecipitationIn,Events,Conditions,WindDirDegrees,DateUTC
12:53 AM,64.9,53.1,65,30.04,10.0,South,11.5,-,N/A,,Clear,180,2012-10-05 04:53:00
1:53 AM,68.0,53.1,59,30.04,10.0,SSW,16.1,25.3,N/A,,Overcast,210,2012-10-05 05:53:00
2:53 AM,66.9,54.0,63,30.04,10.0,SW,20.7,27.6,N/A,,Scattered Clouds,220,2012-10-05 06:53:00
3:53 AM,66.9,54.0,63,30.02,10.0,SSW,17.3,21.9,N/A,,Clear,210,2012-10-05 07:53:00
4:53 AM,66.0,54.0,65,30.04,10.0,SSW,13.8,20.7,N/A,,Mostly Cloudy,210,2012-10-05 08:53:00
5:53 AM,64.9,55.0,70,30.04,10.0,SSW,10.4,-,N/A,,Mostly Cloudy,210,2012-10-05 09:53:00
6:53 AM,64.9,55.0,70,30.05,10.0,SW,13.8,-,N/A,,Overcast,220,2012-10-05 10:53:00
7:53 AM,64.0,55.0,73,30.06,10.0,SW,9.2,-,N/A,,Overcast,220,2012-10-05 11:53:00
8:53 AM,63.0,55.9,78,30.06,10.0,SW,9.2,-,N/A,,Overcast,220,2012-10-05 12:53:00
9:26 AM,64.4,55.4,73,30.06,10.0,SW,10.4,-,N/A,,Mostly Cloudy,230,2012-10-05 13:26:00
9:37 AM,64.4,55.4,73,30.06,10.0,SW,11.5,-,N/A,,Mostly Cloudy,230,2012-10-05 13:37:00
9:53 AM,64.0,57.0,78,30.05,10.0,SW,9.2,-,N/A,,Mostly Cloudy,230,2012-10-05 13:53:00
10:53 AM,63.0,57.9,84,30.05,10.0,West,12.7,-,N/A,,Overcast,280,2012-10-05 14:53:00
12:28 PM,59.0,55.4,88,30.04,8.0,West,11.5,-,0.03,Rain,Light Rain,280,2012-10-05 16:28:00
12:37 PM,59.0,55.4,88,30.05,9.0,West,13.8,-,0.04,,Overcast,280,2012-10-05 16:37:00
12:53 PM,57.9,55.0,90,30.06,10.0,West,17.3,-,0.04,,Overcast,270,2012-10-05 16:53:00
1:53 PM,57.0,55.0,93,30.05,3.0,WSW,10.4,-,0.08,Rain,Rain,250,2012-10-05 17:53:00
2:53 PM,55.9,54.0,93,30.03,5.0,West,10.4,-,0.04,Rain,Light Rain,260,2012-10-05 18:53:00
3:13 PM,55.4,53.6,94,30.03,6.0,West,12.7,-,0.02,Rain,Light Rain,260,2012-10-05 19:13:00
3:20 PM,55.4,53.6,94,30.03,4.0,West,11.5,-,0.03,Rain,Light Rain,260,2012-10-05 19:20:00
3:31 PM,55.4,53.6,94,30.02,4.0,West,11.5,-,0.04,Rain,Rain,260,2012-10-05 19:31:00
3:53 PM,55.9,53.1,90,30.01,5.0,WSW,10.4,-,0.06,Rain,Light Rain,250,2012-10-05 19:53:00
4:53 PM,55.9,54.0,93,29.99,10.0,West,10.4,-,0.05,Rain,Light Rain,260,2012-10-05 20:53:00
5:36 PM,55.4,53.6,94,29.98,10.0,WSW,10.4,-,0.01,Rain,Light Rain,250,2012-10-05 21:36:00
5:53 PM,55.0,53.1,93,29.99,10.0,WSW,11.5,-,0.01,,Overcast,240,2012-10-05 21:53:00
6:16 PM,55.4,51.8,88,29.98,10.0,SSW,4.6,-,N/A,,Overcast,210,2012-10-05 22:16:00
6:26 PM,55.4,51.8,88,29.98,10.0,WSW,6.9,-,N/A,,Overcast,240,2012-10-05 22:26:00
6:53 PM,55.0,52.0,89,29.99,10.0,WSW,10.4,-,0.01,Rain,Light Rain,250,2012-10-05 22:53:00
7:53 PM,55.0,48.9,80,29.97,10.0,West,11.5,-,0.00,,Overcast,270,2012-10-05 23:53:00
8:53 PM,55.0,48.9,80,29.99,10.0,West,17.3,-,N/A,,Overcast,270,2012-10-06 00:53:00
9:46 PM,51.8,48.2,88,29.98,4.0,NW,18.4,-,0.04,Rain,Rain,310,2012-10-06 01:46:00
9:53 PM,52.0,48.9,89,29.97,4.0,WNW,18.4,-,0.05,Rain,Rain,300,2012-10-06 01:53:00
10:10 PM,51.8,48.2,88,29.98,4.0,NW,16.1,-,0.06,Rain,Rain,310,2012-10-06 02:10:00
10:20 PM,51.8,48.2,88,29.97,4.0,WNW,13.8,-,0.09,Rain,Rain,300,2012-10-06 02:20:00
10:28 PM,51.8,48.2,88,29.97,4.0,WNW,16.1,-,0.12,Rain,Rain,300,2012-10-06 02:28:00
10:44 PM,51.8,48.2,88,29.97,6.0,NW,18.4,24.2,0.17,Rain,Rain,310,2012-10-06 02:44:00
10:53 PM,51.1,48.0,89,29.99,6.0,WNW,24.2,29.9,0.19,Rain,Rain,300,2012-10-06 02:53:00
11:01 PM,50.0,46.4,87,29.97,5.0,WNW,20.7,31.1,0.02,Rain,Rain,300,2012-10-06 03:01:00
11:43 PM,48.2,44.6,87,29.97,10.0,WNW,16.1,-,0.06,Rain,Light Rain,300,2012-10-06 03:43:00
11:53 PM,48.0,43.0,83,29.97,7.0,NW,15.0,24.2,0.08,Rain,Rain,310,2012-10-06 03:53:00